SCP
0 0 0 0 0 0 0 -0 -0 -0 -0 0 0 0 0 0 0 -0 -0 0 0 0 0 0 0 0 0 0 0 0 0 0 0 0 0 0 0 0 0 0 0 0 0 0 0 0 0 0 0
0 0 0 0 0 0 0 0 -0 -0 -0 0 0 0 0 0 0 -0 -0 0 0 0 0 0 0 0 0 0 0 1 1 0 0 0 0 0 0 0 0 0 0 0 0 0 0 0 0 0 0
0 0 0 0 0 0 0 0 0 0 0 0 0 0 0 0 0 -0 0 0 0 0 0 0 0 0 0 0 1 1 1 1 1 1 0 0 0 0 0 0 0 0 0 0 0 0 0 0 0
0 -0 -0 0 0 0 0 0 0 0 0 0 0 0 0 0 0 0 0 0 0 0 0 0 0 0 0 1 1 1 1 1 1 1 1 0 0 0 0 0 0 0 0 0 0 0 0 0 0
0 -0 -0 -0 0 0 0 0 0 0 0 0 0 0 0 0 0 0 0 0 0 0 0 0 0 0 0 0 1 1 1 1 1 1 1 1 0 0 0 0 0 0 0 0 0 0 0 0 0
0 -0 -0 -0 0 0 0 0 0 0 0 0 0 0 0 0 0 0 0 0 0 0 0 0 0 0 0 0 0 0 1 1 1 1 1 1 0 0 0 0 0 0 0 0 0 0 0 0 0
0 -0 -0 0 0 0 0 0 0 0 0 0 0 0 1 0 0 0 0 0 0 0 0 0 0 0 0 0 0 0 0 0 1 1 1 1 0 0 0 0 0 0 0 0 0 0 0 0 0
0 0 -0 0 0 0 0 0 0 0 0 0 0 0 1 1 1 1 1 0 0 0 0 0 0 0 0 0 0 0 0 0 0 0 0 0 0 0 0 0 0 0 0 0 0 0 0 0 0
0 0 0 0 0 0 0 0 0 0 0 0 1 1 1 1 1 1 1 0 0 -0 -0 -0 -0 -0 -0 -0 -0 0 0 0 0 0 0 0 0 0 0 0 0 0 0 0 0 0 0 0 1
0 0 0 0 0 0 0 0 0 1 1 1 1 1 2 2 2 1 1 0 0 -0 -0 -0 -0 -0 -0 -0 -0 0 0 0 0 0 0 0 0 0 0 0 0 0 0 0 0 0 0 1 1
0 0 0 0 0 0 0 1 1 1 1 1 1 2 2 2 2 1 1 0 0 0 -0 -0 -0 -0 -0 0 0 0 0 0 0 0 0 1 1 1 1 0 0 0 0 0 0 0 1 1 1
0 0 0 0 0 0 1 1 2 2 2 2 2 2 2 2 2 1 1 1 0 0 0 0 0 0 0 0 0 0 0 0 0 0 1 1 1 1 1 1 0 0 0 0 0 0 0 0 0
0 0 0 0 1 1 1 2 2 2 2 2 2 2 2 2 1 1 1 1 1 0 0 0 0 0 0 0 0 0 0 0 0 0 0 1 1 1 1 0 0 0 0 0 0 0 0 0 0
0 0 0 0 1 1 2 2 2 2 2 2 2 2 2 1 1 1 1 1 0 0 0 0 0 0 0 0 0 0 0 0 0 0 0 0 0 0 0 0 0 0 0 0 0 0 0 0 0
0 0 0 0 0 1 1 1 1 1 2 2 2 1 1 1 1 1 0 0 0 0 0 0 0 0 0 0 0 0 0 0 0 0 0 0 0 0 0 0 0 0 0 0 0 0 0 0 0
0 0 0 0 0 0 1 1 1 1 1 1 1 1 1 1 0 0 0 0 0 0 0 0 0 0 0 0 0 0 0 0 0 0 0 0 0 0 0 0 0 0 0 0 0 0 0 0 0
0 0 0 0 0 0 0 1 1 1 1 1 1 1 0 0 0 0 0 0 0 0 0 0 0 0 0 0 0 0 0 0 0 0 0 0 0 0 0 0 0 0 0 0 0 0 0 0 0
0 0 0 0 0 0 0 0 0 0 0 0 0 0 0 0 0 0 -0 -0 -0 -0 -0 -0 -0 -0 -0 0 0 0 0 0 0 0 0 0 0 0 0 0 0 0 0 0 0 0 0 0 0
0 0 0 0 0 0 0 0 0 0 0 0 0 0 0 0 -0 -0 -0 -0 -0 -0 -0 0 0 0 -0 0 0 0 0 0 0 0 0 0 0 0 0 0 0 0 0 0 0 0 0 0 0
0 0 0 0 0 0 0 0 0 0 0 0 0 0 0 -0 -0 -0 -0 -0 -0 -0 0 0 0 0 0 0 0 0 0 0 0 0 0 0 0 0 0 0 0 0 0 0 0 0 0 0 0
0 0 0 0 0 0 0 0 0 0 0 0 0 0 0 0 -0 -0 -0 0 0 0 0 0 0 0 0 0 0 0 0 0 0 0 0 0 0 0 0 0 0 0 0 0 0 0 0 0 0
0 0 0 0 0 0 0 0 0 0 0 0 0 0 0 0 0 0 0 0 0 0 0 0 0 0 0 0 0 0 0 0 0 0 0 0 0 0 0 0 0 0 0 0 0 0 0 0 0
0 0 0 0 0 0 0 0 0 0 0 0 0 0 0 0 0 0 0 0 0 0 0 0 0 0 0 0 0 0 0 0 0 0 0 0 0 0 0 0 0 0 0 0 0 0 0 0 0
0 0 0 0 0 0 0 0 0 0 -0 0 0 0 0 0 0 0 0 0 0 0 0 0 0 0 0 0 0 0 0 0 0 0 0 0 0 0 0 0 0 0 0 0 0 0 0 0 0
0 0 0 0 0 0 0 0 0 0 0 0 0 0 0 0 0 0 0 0 0 0 0 0 0 0 0 0 0 0 0 0 0 0 0 0 0 0 0 0 0 0 0 0 0 0 0 0 0
0 0 0 0 0 0 -0 0 0 0 0 0 0 0 0 0 0 0 0 0 0 0 0 0 0 0 0 0 0 0 0 0 0 0 0 0 0 0 0 0 0 0 0 0 0 0 0 0 0
0 0 0 0 0 0 0 0 0 0 0 0 0 0 0 0 0 0 0 0 0 0 0 0 0 0 0 0 0 0 0 0 0 0 0 0 0 0 0 0 0 0 0 0 0 0 0 0 0
0 0 0 0 0 0 0 0 0 0 0 0 0 0 0 0 0 0 0 0 0 0 0 0 0 0 0 0 0 0 0 0 0 0 0 0 0 0 0 0 0 0 0 0 0 0 0 0 0
0 0 0 0 0 0 0 0 0 0 0 0 0 0 0 0 0 0 0 0 0 0 0 0 0 0 0 0 0 0 0 0 0 0 0 0 0 0 0 0 0 0 0 0 0 0 0 0 0
0 0 0 0 0 0 0 0 0 0 0 0 0 0 0 0 0 0 0 0 0 0 0 0 0 0 0 0 0 0 0 0 0 0 0 0 0 0 0 0 0 0 0 0 0 0 0 0 0
Wind_Speed
13 7 3 3 3 2 4 6 5 4 3 3 5 8 8 5 3 4 2 9 12 11 8 11 13 14 14 14 15 16 16 16 15 15 15 14 13 13 12 12 11 11 10 10 9 8 8 8 8
7 4 3 3 3 3 5 4 3 2 1 1 4 6 7 6 4 7 5 9 14 11 7 8 13 13 13 13 13 14 15 15 14 14 14 13 13 12 11 11 10 10 10 9 9 8 8 8 8
6 3 4 3 1 2 6 4 2 3 2 2 3 4 6 4 5 5 7 14 13 10 7 9 14 13 13 12 12 12 13 13 13 12 12 12 11 11 10 9 9 9 9 9 9 8 8 7 7
4 3 4 3 3 6 7 9 5 2 3 5 3 5 5 4 3 7 14 15 14 9 7 8 13 13 12 12 11 11 11 11 11 11 11 10 10 9 9 8 8 8 8 8 8 8 8 7 7
3 4 3 2 6 7 6 8 5 0 2 5 4 5 5 6 10 14 14 15 14 10 6 7 12 12 12 11 11 10 10 10 10 10 9 9 9 9 9 9 8 8 7 7 7 8 8 8 7
3 4 3 3 6 7 5 6 4 5 3 4 5 4 4 5 9 11 12 11 11 10 6 6 11 11 10 10 10 10 10 10 9 9 9 9 9 9 9 9 9 8 8 8 7 8 9 9 8
4 4 2 3 5 6 6 6 6 4 4 4 3 5 3 5 6 9 10 10 9 8 6 4 4 6 9 9 9 9 9 9 9 9 9 9 9 9 8 8 8 9 9 9 9 9 9 9 9
4 4 1 3 3 4 5 5 4 5 3 3 3 6 4 6 9 10 9 8 7 6 5 4 3 3 2 3 7 8 8 8 8 9 9 9 9 9 9 8 8 9 9 10 10 10 10 10 9
4 4 2 4 3 3 4 4 4 4 4 5 5 3 7 14 13 11 9 7 6 5 3 3 3 2 1 1 4 5 6 7 7 7 9 8 4 3 4 6 9 10 11 11 11 11 11 10 10
4 3 7 6 4 2 2 3 3 4 6 5 7 9 14 14 12 10 9 7 5 4 2 2 2 1 1 2 1 1 1 2 3 2 3 2 2 3 5 6 10 11 11 11 12 12 11 8 4
6 7 6 6 6 3 1 2 4 4 4 2 6 11 12 12 9 8 7 5 4 3 2 2 1 1 0 1 1 1 1 2 3 3 4 3 2 2 3 2 4 5 7 5 6 7 4 4 4
5 7 5 5 2 2 3 4 5 6 5 6 7 10 11 10 8 7 7 5 4 3 3 4 3 3 2 1 1 2 2 2 2 3 4 3 2 2 2 2 2 2 2 3 3 3 4 5 6
5 4 2 2 4 6 9 8 7 7 8 10 11 11 10 8 7 6 6 6 6 6 5 4 4 4 3 2 1 1 2 2 3 2 2 3 3 3 3 2 2 2 2 3 3 4 5 5 6
3 1 2 3 5 5 10 7 6 6 7 10 10 9 8 7 7 6 7 7 6 6 5 5 5 4 4 2 2 2 2 2 3 3 4 3 2 2 2 2 2 2 2 3 3 4 4 4 4
1 1 3 3 3 3 7 7 4 5 7 9 9 8 8 6 6 5 5 6 6 5 5 4 4 4 4 4 3 3 3 3 3 3 4 4 3 2 2 1 2 2 2 2 2 3 3 4 5
2 3 2 2 2 2 6 4 4 4 7 8 8 7 7 5 4 4 5 5 5 5 4 3 4 4 3 3 3 2 3 3 3 3 4 5 4 3 2 2 2 2 2 1 2 2 3 4 5
4 1 1 2 1 2 4 5 5 4 6 7 6 7 6 5 3 4 5 5 5 5 4 3 3 3 3 3 3 3 3 4 3 3 3 4 5 4 2 2 2 2 1 1 2 2 2 4 5
3 2 2 2 1 3 3 4 5 4 4 5 5 6 6 6 6 5 6 5 5 4 3 3 2 2 2 2 2 2 3 3 3 3 4 5 4 5 3 2 3 2 1 2 2 3 3 4 5
4 3 3 1 1 3 3 4 5 4 4 4 4 5 6 6 5 5 6 6 5 4 4 3 2 1 1 1 2 2 2 2 2 3 4 5 5 5 3 3 3 2 2 2 3 2 3 3 2
4 3 2 2 3 3 2 1 2 3 4 5 5 6 7 6 5 6 6 6 6 5 5 4 3 2 1 1 1 1 0 1 2 3 4 5 5 5 4 3 3 3 2 3 2 1 2 2 2
3 4 4 4 3 5 2 2 1 1 2 3 5 5 6 7 8 7 7 7 6 6 6 5 5 3 2 1 1 2 2 3 3 3 3 4 5 5 4 4 3 3 2 2 2 2 2 2 2
2 1 5 6 5 4 4 2 3 1 2 3 5 5 6 6 6 6 7 7 8 7 5 5 4 4 2 2 1 1 1 2 3 2 3 5 5 5 4 4 3 3 2 2 3 1 1 2 2
3 6 8 6 5 4 5 2 6 2 3 4 5 6 6 6 6 7 7 8 7 6 5 5 4 4 2 2 2 1 2 3 2 3 4 4 4 4 4 3 3 3 2 2 2 2 1 1 2
7 7 8 6 5 3 2 1 6 3 5 4 4 5 6 6 6 6 5 4 4 4 4 4 4 4 2 2 2 3 4 4 4 4 4 4 3 3 4 4 3 3 2 3 2 2 2 1 2
5 7 5 5 4 2 1 1 8 7 6 6 6 7 6 5 5 5 5 5 5 5 4 4 4 4 3 3 3 4 4 4 5 5 4 4 3 3 4 3 3 3 3 3 2 2 2 2 2
3 7 6 4 3 3 1 4 8 6 5 6 6 5 5 5 5 6 6 6 5 5 4 4 4 4 3 4 4 4 4 3 4 4 4 4 4 4 5 5 4 4 4 4 2 2 2 2 2
5 3 5 7 2 1 4 6 8 3 4 4 4 4 5 5 5 5 5 5 5 4 4 5 5 4 5 5 5 5 5 5 5 5 4 4 4 5 5 5 5 5 4 4 3 3 3 3 3
5 8 6 6 5 1 4 4 5 6 7 5 4 5 5 4 4 5 5 4 3 3 2 2 4 5 5 5 5 4 5 5 5 4 5 5 5 5 5 6 6 5 5 4 4 4 4 4 4
2 4 6 5 5 6 3 8 8 9 8 7 7 6 6 6 6 6 4 2 2 1 2 3 4 4 5 6 5 5 5 5 5 5 6 6 6 6 6 6 6 6 6 5 4 5 5 5 5
1 4 7 5 3 4 4 10 5 7 7 6 7 6 5 6 5 3 3 2 2 3 4 4 5 5 6 6 5 6 6 5 5 6 7 6 7 7 7 7 7 8 7 6 6 7 6 6 7
Wind_Direction
140 129 101 64 44 27 277 254 243 289 331 5 63 86 89 76 93 129 113 127 131 138 144 147 145 141 138 135 133 132 132 133 134 135 137 140 144 148 153 158 162 165 166 165 163 157 149 141 138
133 123 67 63 63 357 294 256 266 301 142 98 63 80 79 74 84 112 123 134 136 136 135 144 146 144 142 140 138 137 138 139 140 142 144 147 150 154 159 163 167 169 170 170 169 165 158 150 147
136 93 91 74 81 234 276 281 293 333 27 29 53 58 77 101 129 129 135 134 129 128 128 150 149 149 147 146 145 144 144 145 147 148 150 153 156 160 164 169 173 176 176 177 177 172 166 160 158
123 66 65 66 262 243 250 275 288 311 4 35 68 61 58 37 120 126 131 133 128 123 128 151 151 152 152 152 153 153 152 153 154 155 157 161 164 169 173 178 184 188 190 191 188 182 176 171 169
80 86 57 341 269 258 258 279 269 276 41 31 51 73 44 22 93 120 130 135 133 128 128 147 151 154 156 158 160 161 161 162 163 165 168 173 178 184 187 190 195 201 205 205 203 195 188 184 181
72 74 74 301 288 288 306 337 37 52 53 45 50 74 51 78 107 122 128 130 132 131 124 137 151 155 159 163 166 168 171 173 175 179 183 189 194 199 201 203 206 211 218 219 219 208 198 194 191
112 111 174 258 288 312 342 357 36 33 43 35 49 87 87 102 108 113 115 119 123 123 116 115 137 155 163 170 175 178 180 183 187 191 196 202 209 213 214 217 220 224 228 229 227 221 212 204 200
134 108 295 275 275 301 328 3 32 38 41 33 56 118 148 136 116 106 104 107 116 115 113 114 115 121 144 174 188 191 195 197 200 205 210 216 221 226 228 227 232 237 238 238 236 228 221 215 210
107 77 258 245 238 283 342 17 27 52 56 42 43 88 129 126 120 114 113 112 123 131 119 115 115 113 128 190 214 208 215 217 218 222 227 227 231 241 248 247 244 245 246 246 245 239 231 221 218
112 158 232 228 219 236 349 21 17 57 47 49 63 77 112 123 127 129 133 136 142 151 142 102 114 125 199 233 248 292 290 273 253 247 252 256 238 235 243 251 254 255 255 253 250 246 239 229 218
170 203 238 252 239 230 192 53 24 85 52 54 118 121 124 125 125 128 129 133 138 136 115 84 59 46 46 339 346 328 321 305 279 262 251 252 250 249 254 254 264 267 268 263 258 251 234 218 212
195 243 239 275 267 177 146 114 64 56 74 77 95 114 120 123 124 126 122 119 113 105 79 66 57 46 23 39 349 337 320 301 286 275 266 250 250 249 247 247 253 253 258 256 250 240 232 224 219
222 265 282 329 43 85 88 84 91 74 84 87 91 97 109 110 105 99 98 95 91 85 73 61 58 69 54 48 42 28 0 336 324 322 302 261 245 246 239 245 246 249 252 251 248 244 241 237 231
229 211 24 31 61 70 92 78 82 92 97 94 92 92 95 101 103 101 99 96 91 90 82 74 74 81 86 84 74 55 36 17 12 0 343 327 287 266 254 246 247 251 248 248 249 250 247 245 241
248 77 39 34 73 122 94 60 78 123 113 105 104 105 97 91 100 104 110 114 118 117 115 113 115 105 104 96 83 74 57 45 32 13 359 353 338 308 283 266 263 262 256 254 257 260 256 256 249
31 60 43 326 89 133 107 135 158 140 127 125 128 125 117 109 121 128 136 138 146 144 141 147 125 116 113 106 94 76 61 54 38 22 11 5 360 352 334 306 294 295 283 265 264 260 261 257 252
31 65 235 262 23 127 122 157 170 159 141 143 146 142 137 135 152 162 168 168 172 169 164 167 151 140 122 101 82 67 54 47 34 27 19 9 6 4 359 330 316 319 306 284 275 264 249 262 260
246 233 231 230 337 83 110 143 158 178 171 163 162 157 158 170 190 188 190 189 190 189 186 181 171 153 107 74 59 43 37 28 22 19 12 9 3 5 9 354 341 340 323 307 294 278 260 256 262
208 210 228 230 64 83 118 145 176 179 183 175 182 181 184 196 204 201 203 199 197 202 203 204 192 196 132 67 55 38 2 344 350 353 360 1 360 2 13 5 352 344 306 288 293 282 280 271 252
208 212 191 84 51 84 101 146 182 185 195 191 195 197 197 200 205 211 211 210 208 211 213 213 211 208 184 133 120 128 343 314 307 320 340 354 357 356 8 7 349 335 302 295 293 271 284 281 241
214 196 174 143 97 54 59 1 245 205 205 210 211 209 204 203 205 210 214 217 217 220 216 213 212 211 195 138 92 47 20 355 343 338 335 335 339 344 352 355 352 344 322 288 283 260 245 276 283
287 297 126 119 99 29 33 332 296 288 278 224 219 215 217 219 215 214 218 221 221 224 215 211 210 209 202 155 149 177 257 280 276 288 298 311 323 332 338 347 357 357 350 318 296 274 243 256 285
93 69 83 85 91 53 25 19 297 347 280 250 232 228 230 228 224 223 223 224 221 212 203 202 200 209 205 187 193 215 252 255 280 291 299 307 314 320 327 334 349 352 346 334 321 314 271 226 251
120 70 54 51 61 35 338 30 291 265 237 257 240 231 231 232 231 231 228 218 216 200 191 185 190 213 213 215 221 224 251 271 289 295 298 302 306 310 318 324 333 329 326 326 324 309 286 252 244
79 82 35 3 14 275 267 249 256 257 238 231 240 239 233 232 226 220 211 205 208 199 190 181 188 216 226 233 243 240 246 253 258 268 273 284 293 294 299 310 305 302 303 305 313 316 300 270 255
148 130 155 196 220 279 309 256 257 255 254 242 239 239 236 233 221 214 209 205 208 203 186 183 195 221 234 240 251 252 249 243 248 252 254 261 261 269 279 286 285 284 291 299 305 296 291 276 268
137 141 150 121 107 27 296 292 301 261 254 242 236 234 238 231 213 210 209 207 207 200 196 197 205 226 239 241 247 255 253 246 251 259 258 258 259 268 273 280 284 282 281 280 283 274 282 287 274
121 138 101 105 127 262 301 280 251 254 243 231 224 229 236 217 207 212 214 214 214 212 215 214 217 228 240 244 244 248 250 249 253 262 266 265 267 268 277 280 280 280 275 266 254 256 263 267 269
114 92 99 103 142 151 233 266 228 221 220 217 225 224 214 206 211 220 227 233 234 243 241 242 242 246 253 252 251 255 259 258 259 260 263 267 271 273 273 275 278 280 277 267 248 245 247 248 256
202 158 148 146 194 167 178 265 261 234 233 216 224 221 210 212 222 233 244 256 258 258 259 256 255 252 253 253 252 252 259 264 264 264 266 267 271 273 273 275 275 275 275 268 260 261 256 241 245